| time (UTC) | temp F | wind direction | speed MPH | gust MPH | rain 1hr in | rain 24hr in | rain mn in | humidity % | barometer mb |
| 20260508220428 | 79 | 289 | 2.0 | 2.0 | 0.00 | 0.00 | 0.00 | 24 | 1013.6 |
| 20260508215429 | 79 | 292 | 2.0 | 3.0 | 0.00 | 0.00 | 0.00 | 23 | 1013.6 |
| 20260508214449 | 77 | 286 | 1.0 | 1.0 | 0.00 | 0.00 | 0.00 | 24 | 1013.8 |
| 20260508213429 | 77 | 282 | 1.0 | 1.0 | 0.00 | 0.00 | 0.00 | 23 | 1013.9 |
| 20260508212429 | 77 | 278 | 1.0 | 2.0 | 0.00 | 0.00 | 0.00 | 23 | 1013.9 |
| 20260508211429 | 77 | 295 | 1.0 | 1.0 | 0.00 | 0.00 | 0.00 | 23 | 1014.0 |
| 20260508210509 | 77 | 281 | 1.0 | 2.0 | 0.00 | 0.00 | 0.00 | 20 | 1014.1 |
| 20260508205449 | 77 | 273 | 1.0 | 2.0 | 0.00 | 0.00 | 0.00 | 20 | 1014.1 |
| 20260508204430 | 77 | 288 | 2.0 | 2.0 | 0.00 | 0.00 | 0.00 | 20 | 1014.1 |
| 20260508203430 | 77 | 313 | 1.0 | 2.0 | 0.00 | 0.00 | 0.00 | 23 | 1014.1 |
| 20260508202430 | 77 | 293 | 0.0 | 1.0 | 0.00 | 0.00 | 0.00 | 23 | 1014.1 |
| 20260508201430 | 77 | 283 | 0.0 | 1.0 | 0.00 | 0.00 | 0.00 | 24 | 1014.4 |
| 20260508200430 | 76 | 262 | 1.0 | 1.0 | 0.00 | 0.00 | 0.00 | 25 | 1014.5 |
| 20260508195416 | 76 | 244 | 3.0 | 4.0 | 0.00 | 0.00 | 0.00 | 23 | 1014.5 |
| 20260508194416 | 75 | 261 | 1.0 | 2.0 | 0.00 | 0.00 | 0.00 | 20 | 1014.6 |
| 20260508193416 | 75 | 275 | 1.0 | 3.0 | 0.00 | 0.00 | 0.00 | 23 | 1014.6 |
| 20260508192431 | 75 | 305 | 1.0 | 1.0 | 0.00 | 0.00 | 0.00 | 24 | 1014.6 |
| 20260508191431 | 75 | 236 | 1.0 | 1.0 | 0.00 | 0.00 | 0.00 | 25 | 1014.7 |
| 20260508190432 | 74 | 252 | 1.0 | 1.0 | 0.00 | 0.00 | 0.00 | 25 | 1014.8 |
| 20260508185417 | 73 | 288 | 1.0 | 2.0 | 0.00 | 0.00 | 0.00 | 25 | 1015.0 |
| 20260508184437 | 72 | 271 | 2.0 | 4.0 | 0.00 | 0.00 | 0.00 | 26 | 1015.1 |
| 20260508183457 | 72 | 295 | 2.0 | 3.0 | 0.00 | 0.00 | 0.00 | 29 | 1015.2 |
| 20260508182437 | 72 | 274 | 2.0 | 3.0 | 0.00 | 0.00 | 0.00 | 30 | 1015.3 |
| 20260508181418 | 71 | 220 | 1.0 | 2.0 | 0.00 | 0.00 | 0.00 | 30 | 1015.3 |
| 20260508180418 | 70 | 264 | 1.0 | 2.0 | 0.00 | 0.00 | 0.00 | 32 | 1015.4 |
| 20260508175418 | 69 | 281 | 1.0 | 1.0 | 0.00 | 0.00 | 0.00 | 30 | 1015.6 |
| 20260508174417 | 69 | 0 | 0.0 | 0.0 | 0.00 | 0.00 | 0.00 | 31 | 1015.6 |
| 20260508173418 | 68 | 160 | 1.0 | 2.0 | 0.00 | 0.00 | 0.00 | 35 | 1015.6 |
| 20260508172418 | 67 | 211 | 1.0 | 1.0 | 0.00 | 0.00 | 0.00 | 37 | 1015.7 |
| 20260508171419 | 66 | 291 | 2.0 | 2.0 | 0.00 | 0.00 | 0.00 | 36 | 1015.8 |
| 20260508170419 | 66 | 273 | 2.0 | 3.0 | 0.00 | 0.00 | 0.00 | 38 | 1015.8 |
| 20260508165419 | 65 | 275 | 2.0 | 2.0 | 0.00 | 0.00 | 0.00 | 38 | 1015.9 |
| 20260508164419 | 64 | 275 | 1.0 | 2.0 | 0.00 | 0.00 | 0.00 | 42 | 1015.8 |
| 20260508163439 | 64 | 290 | 1.0 | 2.0 | 0.00 | 0.00 | 0.00 | 43 | 1015.9 |
| 20260508162439 | 63 | 273 | 2.0 | 2.0 | 0.00 | 0.00 | 0.00 | 42 | 1015.8 |
| 20260508161419 | 62 | 248 | 1.0 | 2.0 | 0.00 | 0.00 | 0.00 | 48 | 1015.8 |
| 20260508160419 | 62 | 261 | 1.0 | 2.0 | 0.00 | 0.00 | 0.00 | 49 | 1015.9 |
| 20260508155420 | 60 | 259 | 1.0 | 2.0 | 0.00 | 0.00 | 0.00 | 54 | 1015.9 |
| 20260508154420 | 59 | 264 | 1.0 | 2.0 | 0.00 | 0.00 | 0.00 | 54 | 1015.9 |
| 20260508153420 | 58 | 0 | 0.0 | 0.0 | 0.00 | 0.00 | 0.00 | 56 | 1016.0 |
| 20260508152420 | 57 | 0.0 | 0.0 | 0.00 | 0.00 | 0.00 | 60 | 1015.9 | |
| 20260508151420 | 56 | 290 | 1.0 | 1.0 | 0.00 | 0.00 | 0.00 | 61 | 1015.9 |
| 20260508150421 | 56 | 0.0 | 0.0 | 0.00 | 0.00 | 0.00 | 61 | 1015.8 | |
| 20260508145420 | 55 | 0.0 | 0.0 | 0.00 | 0.00 | 0.00 | 62 | 1015.8 | |
| 20260508144421 | 54 | 279 | 1.0 | 2.0 | 0.00 | 0.00 | 0.00 | 62 | 1015.8 |
| 20260508143421 | 53 | 74 | 0.0 | 1.0 | 0.00 | 0.00 | 0.00 | 67 | 1015.7 |
| 20260508142441 | 52 | 0 | 0.0 | 0.0 | 0.00 | 0.00 | 0.00 | 68 | 1015.7 |
| 20260508141421 | 52 | 99 | 1.0 | 2.0 | 0.00 | 0.00 | 0.00 | 69 | 1015.6 |
| 20260508140422 | 51 | 83 | 1.0 | 1.0 | 0.00 | 0.00 | 0.00 | 73 | 1015.4 |
| 20260508135422 | 51 | 143 | 1.0 | 1.0 | 0.00 | 0.00 | 0.00 | 73 | 1015.4 |
| 20260508134422 | 50 | 113 | 1.0 | 1.0 | 0.00 | 0.00 | 0.00 | 73 | 1015.2 |
| 20260508133423 | 50 | 122 | 2.0 | 2.0 | 0.00 | 0.00 | 0.00 | 71 | 1015.2 |
| 20260508132423 | 49 | 101 | 1.0 | 2.0 | 0.00 | 0.00 | 0.00 | 71 | 1015.1 |
| 20260508131422 | 49 | 31 | 1.0 | 2.0 | 0.00 | 0.00 | 0.00 | 73 | 1015.0 |
| 20260508130443 | 49 | 194 | 1.0 | 2.0 | 0.00 | 0.00 | 0.00 | 73 | 1014.9 |
| 20260508125423 | 49 | 199 | 1.0 | 2.0 | 0.00 | 0.00 | 0.00 | 73 | 1014.8 |
| 20260508124423 | 49 | 30 | 1.0 | 2.0 | 0.00 | 0.00 | 0.00 | 73 | 1014.7 |
| 20260508123423 | 49 | 143 | 1.0 | 2.0 | 0.00 | 0.00 | 0.00 | 73 | 1014.5 |
| 20260508122423 | 49 | 157 | 1.0 | 1.0 | 0.00 | 0.00 | 0.00 | 73 | 1014.5 |
| 20260508121424 | 50 | 183 | 1.0 | 1.0 | 0.00 | 0.00 | 0.00 | 71 | 1014.5 |
| 20260508120424 | 50 | 19 | 1.0 | 2.0 | 0.00 | 0.00 | 0.00 | 71 | 1014.4 |
| 20260508115424 | 50 | 160 | 1.0 | 1.0 | 0.00 | 0.00 | 0.00 | 71 | 1014.4 |
| 20260508114424 | 50 | 279 | 2.0 | 2.0 | 0.00 | 0.00 | 0.00 | 71 | 1014.4 |
| 20260508113425 | 50 | 207 | 2.0 | 2.0 | 0.00 | 0.00 | 0.00 | 69 | 1014.4 |
| 20260508112444 | 51 | 321 | 1.0 | 1.0 | 0.00 | 0.00 | 0.00 | 68 | 1014.4 |
| 20260508111424 | 51 | 51 | 1.0 | 1.0 | 0.00 | 0.00 | 0.00 | 67 | 1014.3 |
| 20260508110425 | 51 | 137 | 1.0 | 1.0 | 0.00 | 0.00 | 0.00 | 67 | 1014.1 |
| 20260508105425 | 51 | 168 | 1.0 | 1.0 | 0.00 | 0.00 | 0.00 | 67 | 1014.1 |
| 20260508104425 | 52 | 206 | 1.0 | 1.0 | 0.00 | 0.00 | 0.00 | 65 | 1014.0 |
| 20260508103425 | 52 | 143 | 2.0 | 2.0 | 0.00 | 0.00 | 0.00 | 65 | 1013.9 |
| 20260508102428 | 52 | 132 | 1.0 | 1.0 | 0.00 | 0.00 | 0.00 | 65 | 1013.8 |
| 20260508101426 | 52 | 86 | 1.0 | 1.0 | 0.00 | 0.00 | 0.00 | 64 | 1013.9 |
| 20260508100446 | 52 | 176 | 1.0 | 1.0 | 0.00 | 0.00 | 0.00 | 64 | 1013.7 |
| 20260508095426 | 53 | 100 | 1.0 | 1.0 | 0.00 | 0.00 | 0.00 | 64 | 1013.7 |
| 20260508094426 | 53 | 67 | 1.0 | 1.0 | 0.00 | 0.00 | 0.00 | 62 | 1013.5 |
| 20260508093427 | 53 | 87 | 1.0 | 2.0 | 0.00 | 0.00 | 0.00 | 62 | 1013.5 |
| 20260508092427 | 53 | 131 | 2.0 | 2.0 | 0.00 | 0.00 | 0.00 | 64 | 1013.5 |
| 20260508091507 | 54 | 39 | 2.0 | 2.0 | 0.00 | 0.00 | 0.00 | 61 | 1013.4 |
| 20260508090427 | 54 | 89 | 1.0 | 1.0 | 0.00 | 0.00 | 0.00 | 61 | 1013.4 |
| 20260508085427 | 54 | 239 | 1.0 | 2.0 | 0.00 | 0.00 | 0.00 | 60 | 1013.4 |
| 20260508084447 | 54 | 131 | 1.0 | 1.0 | 0.00 | 0.00 | 0.00 | 60 | 1013.4 |
| 20260508083427 | 55 | 140 | 1.0 | 1.0 | 0.00 | 0.00 | 0.00 | 58 | 1013.4 |
| 20260508082427 | 56 | 71 | 1.0 | 1.0 | 0.00 | 0.00 | 0.00 | 58 | 1013.4 |
| 20260508081427 | 56 | 112 | 1.0 | 1.0 | 0.00 | 0.00 | 0.00 | 58 | 1013.3 |
| 20260508080428 | 56 | 107 | 1.0 | 2.0 | 0.00 | 0.00 | 0.00 | 56 | 1013.3 |
| 20260508075428 | 57 | 118 | 1.0 | 1.0 | 0.00 | 0.00 | 0.00 | 56 | 1013.2 |
| 20260508074428 | 57 | 119 | 1.0 | 1.0 | 0.00 | 0.00 | 0.00 | 55 | 1013.1 |
| 20260508073448 | 58 | 114 | 1.0 | 1.0 | 0.00 | 0.00 | 0.00 | 54 | 1013.1 |
| 20260508072428 | 58 | 0 | 0.0 | 0.0 | 0.00 | 0.00 | 0.00 | 52 | 1013.0 |
| 20260508071449 | 59 | 107 | 1.0 | 1.0 | 0.00 | 0.00 | 0.00 | 50 | 1012.8 |
| 20260508070428 | 59 | 0 | 0.0 | 0.0 | 0.00 | 0.00 | 0.00 | 49 | 1012.8 |
| 20260508065449 | 60 | 0 | 0.0 | 0.0 | 0.00 | 0.00 | 0.00 | 48 | 1012.7 |
| 20260508064430 | 60 | 114 | 0.0 | 2.0 | 0.00 | 0.00 | 0.00 | 46 | 1012.7 |
| 20260508063430 | 61 | 113 | 1.0 | 1.0 | 0.00 | 0.00 | 0.00 | 46 | 1012.7 |
| 20260508062430 | 61 | 0.0 | 0.0 | 0.00 | 0.00 | 0.00 | 44 | 1012.6 | |
| 20260508061430 | 61 | 84 | 0.0 | 1.0 | 0.00 | 0.00 | 0.00 | 44 | 1012.6 |
| 20260508060430 | 62 | 97 | 1.0 | 2.0 | 0.00 | 0.00 | 0.00 | 44 | 1012.5 |
| 20260508055430 | 62 | 137 | 1.0 | 1.0 | 0.00 | 0.00 | 0.00 | 46 | 1012.4 |
| 20260508054430 | 63 | 128 | 1.0 | 2.0 | 0.00 | 0.00 | 0.00 | 46 | 1012.4 |
| 20260508053431 | 63 | 106 | 0.0 | 1.0 | 0.00 | 0.00 | 0.00 | 44 | 1012.3 |
| 20260508052430 | 64 | 192 | 0.0 | 1.0 | 0.00 | 0.00 | 0.00 | 44 | 1012.2 |
| 20260508051431 | 65 | 0.0 | 0.0 | 0.00 | 0.00 | 0.00 | 42 | 1012.3 | |
| 20260508050431 | 65 | 181 | 1.0 | 1.0 | 0.00 | 0.00 | 0.00 | 38 | 1012.3 |
| 20260508045431 | 66 | 183 | 0.0 | 1.0 | 0.00 | 0.00 | 0.00 | 36 | 1012.1 |
| 20260508044451 | 67 | 182 | 0.0 | 1.0 | 0.00 | 0.00 | 0.00 | 35 | 1012.1 |
| 20260508043417 | 67 | 108 | 0.0 | 1.0 | 0.00 | 0.00 | 0.00 | 32 | 1012.1 |
| 20260508042456 | 68 | 0.0 | 0.0 | 0.00 | 0.00 | 0.00 | 32 | 1012.1 | |
| 20260508041437 | 68 | 0 | 0.0 | 0.0 | 0.00 | 0.00 | 0.00 | 31 | 1012.1 |
| 20260508040417 | 69 | 180 | 0.0 | 0.0 | 0.00 | 0.00 | 0.00 | 31 | 1012.1 |
| 20260508035417 | 70 | 61 | 0.0 | 1.0 | 0.00 | 0.00 | 0.00 | 30 | 1011.9 |
| 20260508034417 | 71 | 274 | 1.0 | 1.0 | 0.00 | 0.00 | 0.00 | 29 | 1011.8 |
| 20260508033418 | 71 | 0.0 | 0.0 | 0.00 | 0.00 | 0.00 | 29 | 1011.5 | |
| 20260508032418 | 72 | 307 | 0.0 | 1.0 | 0.00 | 0.00 | 0.00 | 26 | 1011.5 |
| 20260508031418 | 73 | 189 | 0.0 | 0.0 | 0.00 | 0.00 | 0.00 | 25 | 1011.3 |
| 20260508030418 | 74 | 0.0 | 0.0 | 0.00 | 0.00 | 0.00 | 24 | 1011.2 | |
| 20260508025418 | 75 | 0.0 | 0.0 | 0.00 | 0.00 | 0.00 | 23 | 1011.1 | |
| 20260508024418 | 0 | 0.0 | 0.0 | 0.00 | 0.00 | 0.00 | |||
| 20260508023418 | 76 | 358 | 1.0 | 1.0 | 0.00 | 0.00 | 0.00 | 20 | 1010.9 |
| 20260508022419 | 0 | 296 | 0.0 | 1.0 | 0.00 | 0.00 | 0.00 | ||
| 20260508021418 | 0 | 0 | 0.0 | 0.0 | 0.00 | 0.00 | 0.00 | ||
| 20260508020419 | 79 | 286 | 2.0 | 2.0 | 0.00 | 0.00 | 0.00 | 18 | 1010.8 |
| 20260508015420 | 0 | 0.0 | 0.0 | 0.00 | 0.00 | 0.00 | |||
| 20260508014419 | 80 | 297 | 1.0 | 2.0 | 0.00 | 0.00 | 0.00 | 18 | 1010.8 |
| 20260508013419 | 81 | 0.0 | 0.0 | 0.00 | 0.00 | 0.00 | 19 | 1010.8 | |
| 20260508012420 | 0 | 2 | 1.0 | 2.0 | 0.00 | 0.00 | 0.00 | ||
| 20260508011420 | 81 | 323 | 1.0 | 2.0 | 0.00 | 0.00 | 0.00 | 19 | 1010.8 |
| 20260508010421 | 81 | 294 | 1.0 | 1.0 | 0.00 | 0.00 | 0.00 | 19 | 1010.8 |
| 20260508005421 | 0 | 303 | 1.0 | 2.0 | 0.00 | 0.00 | 0.00 | ||
| 20260508004421 | 0 | 292 | 2.0 | 2.0 | 0.00 | 0.00 | 0.00 | ||
| 20260508003421 | 81 | 0 | 0.0 | 0.0 | 0.00 | 0.00 | 0.00 | 19 | 1010.9 |
| 20260508002441 | 82 | 279 | 1.0 | 1.0 | 0.00 | 0.00 | 0.00 | 20 | 1010.9 |
| 20260508001421 | 82 | 280 | 1.0 | 2.0 | 0.00 | 0.00 | 0.00 | 20 | 1010.9 |
| 20260508000422 | 82 | 301 | 2.0 | 2.0 | 0.00 | 0.00 | 0.00 | 20 | 1010.9 |
| 20260507235421 | 82 | 291 | 2.0 | 2.0 | 0.00 | 0.00 | 0.00 | 20 | 1011.0 |
| 20260507234421 | 81 | 274 | 2.0 | 3.0 | 0.00 | 0.00 | 0.00 | 23 | 1011.1 |
| 20260507233421 | 81 | 336 | 2.0 | 2.0 | 0.00 | 0.00 | 0.00 | 23 | 1011.2 |
| 20260507232422 | 81 | 278 | 2.0 | 4.0 | 0.00 | 0.00 | 0.00 | 23 | 1011.3 |
| 20260507231423 | 82 | 284 | 2.0 | 2.0 | 0.00 | 0.00 | 0.00 | 23 | 1011.3 |
| 20260507230422 | 0 | 256 | 1.0 | 1.0 | 0.00 | 0.00 | 0.00 | ||
| 20260507225422 | 82 | 271 | 2.0 | 3.0 | 0.00 | 0.00 | 0.00 | 23 | 1011.4 |
| 20260507224423 | 82 | 281 | 1.0 | 3.0 | 0.00 | 0.00 | 0.00 | 24 | 1011.5 |
| 20260507223503 | 81 | 283 | 2.0 | 3.0 | 0.00 | 0.00 | 0.00 | 24 | 1011.7 |
| 20260507222423 | 81 | 240 | 1.0 | 1.0 | 0.00 | 0.00 | 0.00 | 23 | 1011.8 |
| 20260507221423 | 81 | 275 | 2.0 | 2.0 | 0.00 | 0.00 | 0.00 | 23 | 1012.0 |